#timestamp,LO_Frequency,Hit,StdDev 
1595181615.4,286046999.8,N
1595181635.2,286047000.1,N
1595181655.1,286047000.6,Y
1595181656.0,286047000.6,P
1595181675.8,286047000.3,N
1595181695.6,286047000.3,N
1595181715.5,286047000.3,N
1595181735.3,286047000.4,N
1595181755.2,286047000.8,Y
1595181775.9,286047001.0,P
1595181795.7,286047001.0,N
1595181815.1,286047000.7,N
1595181835.9,286047001.0,Y
1595181855.7,286047000.7,P
1595181875.6,286047001.1,P
1595181895.4,286047000.4,N
1595181915.2,286047002.7,Y
1595181935.1,286047000.1,P
1595181936.0,286047000.1,N
1595181955.8,286047000.0,N
1595181975.7,286046999.9,N
1595181995.5,286047000.9,N
1595182015.3,286047000.6,N
1595182035.2,286047001.1,N
1595182055.0,286046998.2,Y
1595182055.9,286046998.2,P
1595182075.8,286046996.5,P
1595182095.6,286046999.1,N
1595182115.4,286046996.5,N
1595182135.3,286046999.5,N
1595182155.1,286046998.9,N
1595182175.8,286046996.5,N
1595182195.7,286046996.5,N
1595182215.7,286046998.2,N
1595182235.6,286046996.5,N
1595182255.4,286046996.9,N
1595182275.3,286046996.9,N
1595182295.1,286046999.2,N
1595182296.0,286046999.2,N
1595182315.8,286046999.6,N
1595182335.7,286046999.1,N
1595182385.5,286046998.7,E
1595182395.5,286046998.8,N
1595182415.3,286046998.1,P
1595182435.1,286046998.4,P
1595182455.9,286047000.8,N
1595182475.7,286047001.2,N
1595182495.6,286047000.0,N
1595182515.4,286047000.8,N
1595182535.2,286047000.4,N
1595182555.1,286046999.9,N
1595182556.0,286046999.9,N
1595182575.8,286047002.5,N
1595182595.6,286047001.8,N
1595182615.5,286047001.5,N
1595182635.3,286047001.9,N
1595182655.2,286047001.9,N
1595182675.9,286047001.8,N
1595182695.7,286047002.1,N
1595182715.6,286047002.1,N
1595182735.4,286047001.6,N
1595182755.3,286047002.7,N
1595182775.1,286047002.2,N
1595182776.0,286047002.2,N
1595182795.8,286047002.3,N
1595182815.7,286047001.8,N
1595182835.5,286047002.0,N
1595182855.3,286047001.3,N
1595182875.2,286047002.3,N
1595182895.0,286047001.8,N
1595182895.9,286047001.8,N
1595182915.8,286047001.8,N
1595182935.6,286047001.7,N
1595182955.4,286047001.4,N
1595182975.3,286047001.4,N
1595182995.1,286047001.7,N
1595183015.9,286047002.1,N
1595183035.7,286047003.8,Y
1595183055.5,286047002.7,P
1595183075.4,286047002.3,P
1595183095.2,286046999.8,N
1595183115.1,286047001.8,N
1595183116.0,286047001.8,N
1595183135.8,286047002.3,N
1595183155.6,286047001.0,N
1595183175.5,286047001.1,N
1595183195.3,286046998.5,N
1595183215.1,286046998.2,N
1595183235.9,286046999.0,N
1595183255.7,286046998.9,N
1595183275.6,286046998.7,N
1595183295.4,286046998.6,N
1595183315.2,286046999.4,N
1595183335.1,286046996.8,N
1595183336.0,286046996.8,N
1595183355.8,286046997.3,N
1595183375.7,286046996.8,N
1595183395.5,286046999.2,N
1595183415.3,286046999.6,N
1595183435.2,286046999.6,N
1595183455.9,286046996.5,N
1595183475.7,286046998.5,N
1595183495.6,286046998.1,N
1595183515.4,286046998.6,N
1595183535.3,286047000.4,N
1595183555.1,286046999.4,N
1595183556.0,286046999.4,N
1595183575.8,286046997.2,N
1595183595.7,286046997.2,N
1595183615.5,286046996.8,N
1595183635.4,286046999.0,N
1595183655.2,286046996.7,N
1595183675.0,286046994.9,Y
1595183675.9,286046994.9,P
1595183695.8,286046996.7,N
1595183715.6,286046996.6,N
1595183735.5,286046997.9,N
1595183755.3,286046995.3,Y
1595183775.2,286047000.3,P
1595183795.9,286046998.6,N
1595183815.7,286047000.5,N
1595183835.6,286047000.0,N
1595183855.4,286047000.9,N
1595183875.2,286047001.0,N
1595183895.1,286046999.7,N
1595183896.0,286046999.7,N
1595183915.8,286046999.7,N
1595183935.7,286047001.0,N
1595183955.5,286047000.7,N
1595183975.3,286046998.1,N
1595183995.2,286046999.8,N
1595184015.0,286047001.9,N
1595184015.9,286047001.9,N
1595184035.8,286047002.4,N
1595184055.6,286047002.8,N
1595184075.4,286047002.8,N
1595184095.3,286047001.9,N
1595184115.1,286047002.5,N
1595184135.8,286047002.4,N
1595184155.7,286047003.9,N
1595184175.5,286047002.1,N
1595184195.4,286047001.9,N
1595184215.2,286047001.5,N
1595184235.0,286047004.2,N
1595184235.9,286047004.2,N
1595184255.8,286047003.9,N
1595184275.6,286047003.7,N
1595184295.5,286047003.8,N
1595184315.3,286047004.1,N
1595184335.1,286047004.0,N
1595184355.9,286047003.9,N
1595184375.7,286047001.3,N
1595184395.5,286047002.6,N
1595184415.4,286047002.1,N
1595184435.2,286047002.1,N
1595184455.1,286047003.7,N
1595184456.0,286047003.7,N
1595184475.8,286047003.8,N
1595184495.6,286047004.0,N
1595184515.5,286047002.4,N
1595184535.3,286047001.8,N
1595184555.2,286047004.3,Y
1595184575.9,286046999.7,P
1595184595.7,286047000.2,N
1595184615.6,286047000.4,N
1595184635.4,286047000.0,N
1595184655.2,286046999.7,N
1595184675.1,286046999.9,N
1595184676.0,286046999.9,N
1595184695.8,286047002.2,N
1595184715.7,286047002.8,N
1595184735.5,286047000.5,N
1595184755.3,286047000.2,N
1595184775.2,286047000.3,N
1595184795.0,286047002.5,N
1595184795.9,286047002.5,N
1595184815.8,286047001.7,N
1595184835.6,286047001.4,N
1595184855.4,286047002.0,N
1595184875.3,286047003.9,Y
1595184895.1,286047002.2,P
1595184915.9,286047002.4,P
1595184935.7,286047002.5,P
1595184955.5,286046999.8,N
1595184975.4,286046999.8,N
1595184995.2,286047000.1,N
1595185015.0,286047000.6,N
1595185015.9,286047000.6,N
1595185035.8,286047002.7,N
1595185055.6,286047002.4,N
1595185075.5,286046999.7,N
1595185095.3,286047000.3,N
1595185115.1,286047000.5,N
1595185135.9,286047001.2,N
1595185155.7,286047000.2,N
1595185175.5,286047000.8,N
1595185195.4,286047000.1,N
